Tracking 30970 objects as of 3-Jul-2025
HD Live streaming from Space Station
objects crossing your sky now

CZ-3 DEB

Track CZ-3 DEB now!


NORAD ID: 29445
Int'l Code: 1984-035D
Perigee: 462.3 km
Apogee: 30,786.0 km
Inclination: 30.4 °
Period: 541.1 minutes
Semi major axis: 21995 km
RCS: 0.1344 m2 (medium)
Launch date: April 8, 1984
Source: People's Republic of China (PRC)
Launch site: Xichang Space Center, China (XSC)

Note: This is SATELLITE DEBRIS
Your satellite tracking list
Your tracking list is empty




NASA's NSSDC Master Catalog

Two Line Element Set (TLE):
1 29445U 84035D   25180.15036329 -.00000058  00000-0  56940-3 0  9990
2 29445  30.4433 334.6483 6893284  10.8564 358.4291  2.66142338 29905
Source of the keplerian elements: AFSPC